This demonstration page uses our WeatherBlox Daily Observations layout. Learn more.

Left ArrowRight Arrow

38.20091, -84.87328

Hourly Observations for October 22, 2021

Temp ( °F °C ) Dew Point ( °F °C ) Humidity (%) Winds ( mph kmh ) Pressure ( in mb ) Visibility ( mi km ) Precip ( " mm )
12:53 am 00:53 Clear 49 9.4 45 7.2 86 86 Calm 30.04 1017 10 16 0.00 0.00
1:53 am 01:53 Clear 46 7.8 44 6.7 93 93 Calm 30.04 1017 10 16 0.00 0.00
2:53 am 02:53 Clear 46 7.8 44 6.7 93 93 WSW 5 7 30.04 1017 10 16 0.00 0.00
3:53 am 03:53 Clear 46 7.8 44 6.7 93 93 WSW 3 6 30.04 1017 10 16 0.00 0.00
4:24 am 04:24 Mostly Cloudy 45 7.2 43 6.1 93 93 Calm 30.07 1018 10 16 0.00 0.00
4:53 am 04:53 Cloudy 47 8.3 45 7.2 93 93 SW 5 7 30.04 1017 10 16 0.00 0.00
5:53 am 05:53 Cloudy 48 8.9 46 7.8 93 93 WSW 6 9 30.04 1017 10 16 0.00 0.00
6:53 am 06:53 Cloudy 49 9.4 47 8.3 93 93 WSW 3 6 30.04 1017 10 16 0.00 0.00
7:53 am 07:53 Cloudy 50 10 47 8.3 89 89 WSW 5 7 30.06 1018 10 16 0.00 0.00
8:53 am 08:53 Cloudy 50 10 48 8.9 93 93 Calm 30.08 1019 9 14 0.00 0.00
9:36 am 09:36 Cloudy 51 10.6 48 8.9 89 89 W 3 6 30.10 1019 10 16 0.00 0.00
9:53 am 09:53 Cloudy 51 10.6 49 9.4 92 92 Calm 30.09 1019 8 13 0.00 0.00
10:30 am 10:30 Cloudy 52 11.1 49 9.4 89 89 SW 5 7 30.10 1019 10 16 0.00 0.00
10:53 am 10:53 Cloudy 52 11.1 49 9.4 89 89 SW 5 7 30.09 1019 8 13 0.00 0.00
11:53 am 11:53 Cloudy 53 11.7 49 9.4 86 86 WSW 3 6 30.08 1019 10 16 0.00 0.00
12:53 pm 12:53 Cloudy 54 12.2 48 8.9 80 80 WSW 8 13 30.07 1018 10 16 0.00 0.00
1:17 pm 13:17 Cloudy 55 12.8 50 10 83 83 S 7 11 30.07 1018 10 16 0.00 0.00
1:53 pm 13:53 Cloudy 57 13.9 48 8.9 72 72 Calm 30.05 1018 10 16 0.00 0.00
2:53 pm 14:53 Cloudy 57 13.9 48 8.9 72 72 SSW 5 7 30.04 1017 10 16 0.00 0.00
3:53 pm 15:53 Cloudy 57 13.9 48 8.9 72 72 W 5 7 30.03 1017 10 16 0.00 0.00
4:53 pm 16:53 Cloudy 57 13.9 49 9.4 74 74 SW 6 9 30.04 1017 10 16 0.00 0.00
5:16 pm 17:16 Cloudy 57 13.9 49 9.4 74 74 SW 3 6 30.04 1017 10 16 0.00 0.00
5:53 pm 17:53 Cloudy 56 13.3 50 10 81 81 WSW 3 6 30.04 1017 10 16 0.00 0.00
6:53 pm 18:53 Cloudy 55 12.8 50 10 83 83 SW 3 6 30.04 1017 10 16 0.00 0.00
7:53 pm 19:53 Cloudy 55 12.8 50 10 83 83 SSW 3 6 30.04 1017 10 16 0.00 0.00
8:53 pm 20:53 Cloudy 55 12.8 50 10 83 83 SSW 5 7 30.04 1017 10 16 0.00 0.00
9:37 pm 21:37 Cloudy 55 12.8 49 9.4 80 80 SSW 5 7 30.04 1017 10 16 0.00 0.00
9:53 pm 21:53 Cloudy 55 12.8 50 10 83 83 SW 6 9 30.04 1017 10 16 0.00 0.00
10:11 pm 22:11 Cloudy 54 12.2 49 9.4 83 83 SW 7 11 30.04 1017 10 16 0.00 0.00
10:53 pm 22:53 Cloudy 54 12.2 49 9.4 83 83 SW 6 9 30.04 1017 10 16 0.00 0.00
11:13 pm 23:13 Cloudy 54 12.2 49 9.4 83 83 SW 7 11 30.04 1017 10 16 0.00 0.00
11:53 pm 23:53 Cloudy 54 12.2 49 9.4 83 83 SSW 6 9 30.03 1017 10 16 0.00 0.00

Powered by AerisWeather